User: anonymous   Login
Location: Chantarel
(45.1638°N, 1.7873°E)
Time: 14:58:45
(UTC+00:00)
Language:

H-2A R/B - Orbit

View from above orbital plane
View from above orbital plane
View from above satellite
View from above satellite

Ground track
Ground track

The orbit data is extracted from the following two-line orbital elements,

1 38341U 12025E   21129.22444175  .00000131  00000-0  23017-4 0  9995
2 38341  98.5274 312.0287 0054111 265.4499  94.0531 14.84214306485686
Epoch (UTC): 09 May 2021 05:23:11
Eccentricity: 0.0054111
inclination: 98.5274°
perigee height: 578 km
apogee height: 654 km
right ascension of ascending node: 312.0287°
argument of perigee: 265.4499°
revolutions per day: 14.84214306
mean anomaly at epoch: 94.0531°
orbit number at epoch: 48568

The dashed part of the orbit path shows where the satellite is in the earth's shadow,  

DLR